Flag for Germany Weather past 2 weeks in Koblenz, Rhineland-Palatinate, Germany

Now
52 °F

Cool.


Feels Like: 49 °F
Forecast: 35 / 65 °F
Wind: 9 mph from East

Location: Buechel

Current Time: Apr 19, 2015 at 2:04:38 PM

Latest Report: Apr 19, 2015 at 1:20 PM


Visibility: N/A

Pressure: 30.12 "Hg

Humidity: 38%

Dew point: 27 °F

Location of KoblenzLocation

Historic Weather in Koblenz — Graph

°F

Koblenz temperature yesterday

Maximum temperature yesterday: 52 °F (at 5:20 PM)
Minimum temperature yesterday: 36 °F (at 4:20 AM)
Average temperature yesterday: 44 °F

Past Weeks' High & Low Weather Summary

 TemperatureHumidityPressure
High72 °F (Apr 15, 4:20 PM)93% (Apr 7, 12:20 AM)30.60 "Hg (Apr 7, 12:20 AM)
Low32 °F (Apr 6, 5:20 AM)20% (Apr 10, 4:20 PM)29.89 "Hg (Apr 16, 6:20 PM)
Average49 °F59%30.25 "Hg
* Reported Apr 5 12:20 PM — Apr 19 12:20 PM, Koblenz, Weather by CustomWeather, © 2015

Note: Actual official high and low records may vary slightly from our data, if they occured in-between our weather recording intervals... More about our weather records

Advertising

Koblenz weather history for previous 24 hours

 ConditionsComfort  
Time TempWeatherWind HumidityBarometerVisibility
12:20 PM
Sun, Apr 19
50 °FCool.12 mph43%30.12 "Hg6 mi
11:20 AM48 °FCool.8 mph46%30.12 "HgN/A
10:20 AM46 °FCool.8 mph46%30.12 "Hg6 mi
9:20 AM45 °FQuite cool.8 mph49%30.12 "HgN/A
8:20 AM41 °FQuite cool.8 mph57%30.12 "HgN/A
7:20 AM37 °FChilly.6 mph60%30.12 "HgN/A
6:20 AM36 °FChilly.8 mph60%30.12 "HgN/A
5:20 AM36 °FChilly.7 mph60%30.12 "Hg6 mi
4:20 AM39 °FChilly.6 mph52%30.15 "Hg4 mi
3:20 AM39 °FChilly.7 mph56%30.18 "Hg6 mi
2:20 AM37 °FChilly.8 mph60%30.18 "Hg6 mi
1:20 AM41 °FQuite cool.7 mph53%30.21 "HgN/A
12:20 AM41 °FQuite cool.6 mph49%30.21 "HgN/A
11:20 PM
Sat, Apr 18
43 °FQuite cool.7 mph46%30.21 "HgN/A
10:20 PM45 °FQuite cool.5 mph46%30.21 "HgN/A
9:20 PM45 °FQuite cool.6 mph42%30.21 "HgN/A
8:20 PM48 °FCool.5 mph40%30.21 "HgN/A
7:20 PM50 °FCool.8 mph35%30.21 "HgN/A
6:20 PM52 °FCool.10 mph32%30.21 "HgN/A
5:20 PM52 °FCool.10 mph30%30.21 "HgN/A
4:20 PM50 °FCool.12 mph35%30.24 "HgN/A
3:20 PM50 °FCool.14 mph37%30.24 "HgN/A
2:20 PM50 °FCool.13 mph37%30.27 "HgN/A
Weather by CustomWeather, © 2015

See weather overviewHow to use our weather pages